This is the latest recevied weather packets stored in our database for station/object AG1T-20. If no packets are shown the sender has not sent any weather packets the latest 10 day(s).
| Time | Temp. | Humidity | Pressure | Rain* | Wind** | Luminosity | Snow |
|---|---|---|---|---|---|---|---|
| 1778079605 | 6.67° C | 55% | 1021.6 hPa | 0 mm | - | 756 W/m² | - |
| 1778079005 | 6.67° C | 55% | 1021.2 hPa | 0 mm | - | 725 W/m² | - |
| 1778078405 | 6.67° C | 57% | 1021.2 hPa | 0 mm | - | 692 W/m² | - |
| 1778077805 | 6.11° C | 57% | 1021.2 hPa | 0 mm | - | 661 W/m² | - |
| 1778077205 | 6.11° C | 61% | 1021.2 hPa | 0 mm | - | 630 W/m² | - |
| 1778076605 | 5.56° C | 59% | 1021.2 hPa | 0 mm | - | 596 W/m² | - |
| 1778076005 | 5.56° C | 62% | 1021.2 hPa | 0 mm | - | 559 W/m² | - |
| 1778075405 | 5° C | 74% | 1020.3 hPa | 0 mm | - | 519 W/m² | - |
| 1778074805 | 4.44° C | 76% | 1020.3 hPa | 0 mm | - | 480 W/m² | - |
| 1778074205 | 3.33° C | 79% | 1020.3 hPa | 0 mm | - | 438 W/m² | - |
| 1778073605 | 2.78° C | 78% | 1020.3 hPa | 0 mm | - | 391 W/m² | - |
| 1778073005 | 2.22° C | 82% | 1020.3 hPa | 0 mm | - | 24 W/m² | - |
| 1778072404 | 1.67° C | 85% | 1020.3 hPa | 0 mm | - | 20 W/m² | - |
| 1778071804 | 1.11° C | 87% | 1019.1 hPa | 0 mm | - | 17 W/m² | - |
| 1778071204 | 1.11° C | 86% | 1019.1 hPa | 0 mm | - | 13 W/m² | - |
| 1778070604 | 1.11° C | 86% | 1019.1 hPa | 0 mm | - | 10 W/m² | - |
| 1778070005 | 1.67° C | 86% | 1019.1 hPa | 0 mm | - | 6 W/m² | - |
| 1778069405 | 1.67° C | 85% | 1019.1 hPa | 0 mm | - | 2 W/m² | - |
| 1778068805 | 1.67° C | 83% | 1019.1 hPa | 0 mm | - | 0 W/m² | - |
| 1778068205 | 2.22° C | 82% | 1018.5 hPa | 0 mm | - | 0 W/m² | - |
| 1778067605 | 2.22° C | 81% | 1018.5 hPa | 0 mm | - | 0 W/m² | - |
| 1778067005 | 2.22° C | 81% | 1018.5 hPa | 0 mm | - | 0 W/m² | - |
| 1778066405 | 2.22° C | 81% | 1018.5 hPa | 0 mm | - | 0 W/m² | - |
| 1778065805 | 2.78° C | 78% | 1018.5 hPa | 0 mm | - | 0 W/m² | - |
| 1778065205 | 3.33° C | 76% | 1018.5 hPa | 0 mm | - | 0 W/m² | - |
* Rain latest hour (hover to see other rain measurements)
** Current wind speed in m/s (hover to see current wind gust speed)